Tracking 25711 objects as of 22-May-2022
HD Live streaming from Space Station
objects crossing your sky now

FREGAT DEB

Track FREGAT DEB now!
10-day predictions


NORAD ID: 45640
Int'l Code: 2011-037AG
Perigee: 554.9 km
Apogee: 3,886.6 km
Inclination: 51.4 °
Period: 132.1 minutes
Semi major axis: 8591 km
RCS: Unknown
Launch date: July 18, 2011
Source: Commonwealth of Independent States (former USSR) (CIS)
Launch site: TYURATAM MISSILE AND SPACE COMPLEX (TTMTR)

Note: This is SATELLITE DEBRIS
aabbcc
Your satellite tracking list
Your tracking list is empty




NASA's NSSDC Master Catalog

Two Line Element Set (TLE):
1 45640U 11037AG  22141.95147216  .00846969  00000-0  52064+0 0  9994
2 45640  51.4162  46.4980 1938896  16.5340 349.0553 10.90140098  3019
Source of the keplerian elements: AFSPC